"Pseudo-MPEC" for P22n0fW

Created 2026 May 8 1:35:07 UT using Find_Orb

Click here for an explanation of pseudo-MPECs

 
 Astrometry: 
     P22n0fW*0C2026 05 07.36774815 11 24.521+08 11 12.24   ~57BK 21.01wXNEOCPF52
     P22n0fW 0C2026 05 07.37985015 11 27.130+08 11 57.79   ~57BK 21.22wXNEOCPF52
     P22n0fW 0C2026 05 07.39193215 11 29.750+08 12 43.38   ~57BK 21.61wXNEOCPF52
     P22n0fW 0C2026 05 07.40411115 11 32.372+08 13 29.22   ~57BK 21.65wXNEOCPF52
     P22n0fW 0C2026 05 07.49080015 11 51.032+08 18 53.76   ~57GZ 21.58GVNEOCPF52
     P22n0fW 0C2026 05 07.49161015 11 51.211+08 18 56.72   ~57GZ 21.25GVNEOCPF52
     P22n0fW 0C2026 05 07.49241715 11 51.385+08 18 59.88   ~57GZ 21.14GVNEOCPF52

Station data:
(F52) Pan-STARRS 2, Haleakala  (N20.707382 W156.255910)  US/Hawaii.
   Observers J. Herman, T. Lowe, P. Minguez, A. Schultz, I. Smith. Measurers
   K. Chambers, T. de Boer, J. Fairlamb, H. Gao, M. Huber, C.-C. Lin, E.
   Magnier, Y. Ramanjooloo, R. Wainscoat, R. Weryk. 1.8-m Ritchey-Chrétien +
   CCD.

Orbital elements:  P22n0fW
   Perihelion 2026 Apr 14.792761 +/- 24 TT = 19:01:34.5 (JD 2461145.292761)
Epoch 2026 May  7.0 TT = JDT 2461167.5   Earth MOID: 0.1480   Ju: 0.3409
M   4.368547569 +/- 10              (J2000 ecliptic)             AutoNEOCP
n   0.196717280 +/- 0.203           Peri.  351.033488 +/- 60
a   2.928022265 +/- 2.01            Node   213.008391 +/- 38
e   0.60745594 +/- 0.235            Incl.   16.894165 +/- 6
P   5.01027                H 23.60  G  0.15   U 11.7  SR
q 1.149377738 +/- 0.102    Q 4.706666792 +/- 17.9
From 7 observations 2026 May 7 (3.0 hr); mean residual 0".10
Residuals in arcseconds: 
260507 F52  .23+  .12+    260507 F52  .18-  .07-    260507 F52  .05+  .10+    
260507 F52  .08-  .05-    260507 F52  .02-  .01-    
260507 F52  .04-  .04-    260507 F52  .04+  .06-    

Ephemerides (geocentric):
Date (UTC) HH   RA             Dec           delta  r     elong  mag " sig PA
---- --------  ------------   ------------  ------ ------ -----  --- --------
2026 05 08 02  15 14 07.983   +08 55 13.72  .19294 1.1854 153.8 21.5  199 105
2026 05 08 03  15 14 17.413   +08 57 43.18  .19314 1.1855 153.8 21.5  216 105
2026 05 08 04  15 14 26.825   +09 00 12.23  .19334 1.1857 153.7 21.5  234 106
2026 05 08 05  15 14 36.218   +09 02 40.87  .19353 1.1858 153.7 21.5  252 106
2026 05 08 06  15 14 45.594   +09 05 09.11  .19373 1.1859 153.6 21.5  271 107
2026 05 08 07  15 14 54.952   +09 07 36.94  .19393 1.1860 153.6 21.5  290 107
2026 05 08 08  15 15 04.292   +09 10 04.37  .19413 1.1862 153.5 21.5  310 108
2026 05 08 09  15 15 13.613   +09 12 31.39  .19432 1.1863 153.5 21.5  331 108
2026 05 08 10  15 15 22.917   +09 14 58.00  .19452 1.1864 153.4 21.5  352 109
2026 05 08 11  15 15 32.204   +09 17 24.22  .19472 1.1865 153.4 21.5  374 109
2026 05 08 12  15 15 41.472   +09 19 50.03  .19492 1.1867 153.3 21.5  396 109
2026 05 08 13  15 15 50.722   +09 22 15.44  .19512 1.1868 153.3 21.5  419 110
2026 05 08 14  15 15 59.955   +09 24 40.44  .19532 1.1869 153.2 21.5  443 110
2026 05 08 15  15 16 09.170   +09 27 05.05  .19552 1.1871 153.2 21.5  468 111
2026 05 08 16  15 16 18.367   +09 29 29.25  .19572 1.1872 153.1 21.5  493 111
2026 05 08 17  15 16 27.546   +09 31 53.06  .19592 1.1873 153.1 21.5  519 112
2026 05 08 18  15 16 36.708   +09 34 16.46  .19612 1.1874 153.0 21.5  546 112
2026 05 08 19  15 16 45.852   +09 36 39.47  .19632 1.1876 153.0 21.5  573 112
2026 05 08 20  15 16 54.978   +09 39 02.07  .19652 1.1877 152.9 21.5  601 113
2026 05 08 21  15 17 04.087   +09 41 24.28  .19672 1.1878 152.9 21.5  630 113
2026 05 08 22  15 17 13.178   +09 43 46.09  .19692 1.1880 152.8 21.5  660 113
2026 05 08 23  15 17 22.252   +09 46 07.51  .19713 1.1881 152.8 21.5  690 114
2026 05 09 00  15 17 31.308   +09 48 28.53  .19733 1.1882 152.7 21.5  722 114
2026 05 09 01  15 17 40.346   +09 50 49.15  .19753 1.1883 152.7 21.5  754 114
2026 05 09 02  15 17 49.368   +09 53 09.38  .19774 1.1885 152.6 21.5  786 115
2026 05 09 03  15 17 58.371   +09 55 29.21  .19794 1.1886 152.6 21.5  820 115
2026 05 09 04  15 18 07.358   +09 57 48.65  .19814 1.1887 152.5 21.6  854 115
2026 05 09 05  15 18 16.327   +10 00 07.69  .19835 1.1889 152.5 21.6  890 116
2026 05 09 06  15 18 25.278   +10 02 26.35  .19855 1.1890 152.4 21.6  926 116
2026 05 09 07  15 18 34.212   +10 04 44.61  .19875 1.1891 152.4 21.6  963 116
2026 05 09 08  15 18 43.129   +10 07 02.48  .19896 1.1893 152.3 21.6 1001 117
2026 05 09 09  15 18 52.029   +10 09 19.96  .19916 1.1894 152.3 21.6 1039 117
2026 05 09 10  15 19 00.911   +10 11 37.04  .19937 1.1895 152.2 21.6 1079 117
2026 05 09 11  15 19 09.777   +10 13 53.74  .19958 1.1897 152.2 21.6 1119 117
2026 05 09 12  15 19 18.625   +10 16 10.05  .19978 1.1898 152.1 21.6 1161 117
2026 05 09 13  15 19 27.455   +10 18 25.97  .19999 1.1899 152.1 21.6 1203 118
2026 05 09 14  15 19 36.269   +10 20 41.51  .20019 1.1901 152.1 21.6 1246 118
2026 05 09 15  15 19 45.066   +10 22 56.65  .20040 1.1902 152.0 21.6 1290 118
2026 05 09 16  15 19 53.845   +10 25 11.41  .20061 1.1903 152.0 21.6 1335 118
2026 05 09 17  15 20 02.608   +10 27 25.78  .20081 1.1905 151.9 21.6 1381 119
2026 05 09 18  15 20 11.353   +10 29 39.77  .20102 1.1906 151.9 21.6 1428 119
2026 05 09 19  15 20 20.082   +10 31 53.37  .20123 1.1907 151.8 21.6 1476 119
2026 05 09 20  15 20 28.793   +10 34 06.59  .20144 1.1909 151.8 21.6 1525 119
2026 05 09 21  15 20 37.488   +10 36 19.43  .20165 1.1910 151.7 21.6 1575 119
2026 05 09 22  15 20 46.166   +10 38 31.88  .20185 1.1911 151.7 21.6 1626 120
2026 05 09 23  15 20 54.827   +10 40 43.95  .20206 1.1913 151.6 21.6 1678 120
2026 05 10 00  15 21 03.471   +10 42 55.64  .20227 1.1914 151.6 21.6 1731 120
2026 05 10 01  15 21 12.098   +10 45 06.94  .20248 1.1915 151.5 21.6 1785 120